Probability
17 20 24 24 20 15 12 10 6 3 1 0 0 0 0 0 0 0 0 0 0 0 0 0 0 0 0 0 0 0 0 0 0 0 0 0 0 0 0 0 0 0 0
24 24 27 27 23 18 15 12 8 4 2 0 0 0 0 0 0 0 0 0 0 0 0 0 0 0 0 0 0 0 0 0 0 0 0 0 0 0 0 0 0 0 0
29 27 27 29 28 23 19 16 11 5 1 0 0 0 0 0 0 0 0 0 0 0 0 0 0 0 0 0 0 0 0 0 0 0 0 0 0 0 0 0 0 0 0
27 26 26 30 31 27 22 18 13 7 2 1 0 0 0 0 0 0 0 0 0 0 0 0 0 0 0 0 0 0 0 0 0 0 0 0 0 0 0 0 0 0 0
26 26 30 34 33 29 24 18 13 8 4 2 0 0 0 0 0 0 0 0 0 0 0 0 0 0 0 0 0 0 0 0 0 0 0 0 0 0 0 0 0 0 0
28 31 36 39 36 31 26 19 13 9 5 2 0 0 0 0 0 0 1 0 0 0 0 0 0 0 0 0 0 0 0 0 0 0 0 0 0 0 0 0 0 0 0
34 35 38 41 38 32 26 20 14 10 6 2 1 1 0 0 0 0 0 0 0 0 0 0 0 0 0 0 0 0 0 0 0 0 0 0 0 0 0 0 0 0 0
38 37 38 39 38 33 27 21 16 10 6 4 3 2 1 1 0 0 0 0 0 0 0 0 1 1 0 0 1 1 0 0 0 0 0 0 0 0 0 0 0 0 0
37 36 35 35 35 32 28 22 16 10 6 5 4 3 2 1 0 0 0 0 0 0 0 1 2 2 1 1 1 1 0 0 0 0 0 0 0 0 0 0 0 0 0
37 36 33 32 30 28 25 20 14 10 6 5 3 2 1 1 0 0 0 0 0 0 1 2 2 3 2 1 1 1 0 0 0 0 0 0 0 0 0 0 0 0 0
38 36 33 30 28 25 22 18 14 10 6 4 2 0 0 0 0 0 0 0 0 1 2 3 3 3 2 1 0 0 0 0 0 0 0 0 0 0 0 0 0 0 0
36 35 34 31 28 26 22 20 17 12 7 3 1 0 0 0 0 0 0 0 0 2 3 3 3 2 2 1 0 0 0 0 0 0 0 0 0 0 0 0 0 0 0
35 34 34 34 31 28 26 23 19 15 10 6 2 0 0 0 0 1 2 1 1 1 3 4 4 3 1 1 0 0 0 0 0 0 0 0 0 0 0 0 0 0 0
32 32 33 33 32 31 29 25 20 16 13 9 3 0 0 0 0 2 3 3 2 2 2 3 4 3 1 0 0 0 0 0 0 0 0 0 0 0 0 0 0 0 0
27 29 30 29 28 30 30 27 22 18 14 10 5 2 1 0 0 1 3 3 3 2 1 2 3 2 1 0 0 0 0 0 0 0 0 0 0 0 0 0 0 0 0
24 26 27 26 26 27 29 27 23 19 16 13 8 4 3 1 1 1 1 2 2 1 0 1 1 1 1 0 0 0 0 0 0 0 0 0 0 0 0 0 0 0 0
23 25 27 27 26 26 27 27 24 21 19 17 13 9 6 4 2 1 1 1 1 0 0 0 0 0 1 1 0 0 0 0 0 0 0 0 0 0 0 0 0 0 0
23 25 26 27 27 27 28 28 27 23 20 19 17 14 9 6 4 3 1 0 1 1 0 0 0 0 0 0 0 0 0 0 0 0 0 0 0 0 0 0 0 0 0
18 22 25 26 26 26 28 29 28 25 21 18 17 14 10 7 6 5 2 1 1 1 0 0 0 0 0 0 0 0 0 0 0 0 0 0 0 0 0 0 0 0 0
13 16 21 23 23 23 25 25 25 22 18 16 16 14 11 8 7 5 3 1 1 1 0 0 0 0 0 0 0 0 0 0 0 0 0 0 0 0 0 0 0 0 0
10 12 15 18 18 19 21 20 18 16 14 13 14 14 11 8 6 4 3 1 0 0 0 0 0 0 0 0 0 0 0 0 0 0 0 0 0 0 0 0 0 0 0
9 9 10 12 13 15 18 17 14 13 12 11 11 12 10 7 5 4 3 2 1 0 0 0 0 0 0 0 0 0 0 0 0 0 0 0 0 0 0 0 0 0 0
7 7 8 9 10 12 14 15 14 13 12 10 10 11 10 6 4 3 2 2 1 0 0 0 0 0 0 0 0 0 0 0 0 0 0 0 0 0 0 0 0 0 0
4 4 6 8 9 11 12 12 13 11 10 8 8 9 9 6 4 3 2 1 0 0 0 0 0 0 0 0 0 0 0 0 0 0 0 0 0 0 0 0 0 0 0
1 2 5 7 8 9 9 10 10 9 7 6 6 7 7 5 4 3 2 1 0 0 0 0 0 0 0 0 0 0 0 0 0 0 0 0 0 0 0 0 0 0 0
1 2 4 6 7 7 8 9 9 8 6 5 4 6 6 6 4 3 2 1 0 0 0 0 0 0 0 0 0 0 0 0 0 0 0 0 0 0 0 0 0 0 0
Wind_Speed
10 12 16 15 15 14 14 13 12 12 12 12 12 12 12 13 13 12 12 12 12 13 13 13 14 14 15 15 16 16 16 16 16 16 15 15 15 15 15 14 14 11 16
13 14 16 15 15 14 14 13 12 11 11 11 11 11 12 12 12 12 12 12 12 13 13 13 14 14 15 15 15 15 14 14 14 13 12 12 13 15 16 15 15 11 16
15 15 15 15 14 14 14 13 12 11 11 11 11 11 11 12 12 12 12 12 12 13 13 13 14 14 14 14 14 13 12 10 9 9 9 6 9 15 16 15 15 16 16
14 13 13 15 14 14 14 13 12 11 11 11 11 11 11 11 11 11 11 12 12 12 13 12 13 13 13 13 12 11 10 8 6 5 5 6 7 14 15 15 15 15 15
13 12 13 15 14 14 13 13 12 11 11 10 11 11 11 11 11 11 11 12 12 12 12 12 12 12 12 12 11 9 7 6 6 6 7 7 6 12 14 15 15 15 15
12 12 13 15 14 13 13 12 12 11 11 11 11 11 11 11 11 11 11 11 11 12 12 12 12 12 11 10 9 8 6 6 5 6 7 7 6 13 14 14 14 14 14
11 11 13 14 14 13 13 12 11 11 11 11 11 11 11 11 11 11 11 11 11 11 11 12 11 11 10 9 8 7 6 6 4 7 7 6 8 13 13 13 13 13 13
11 11 12 13 13 13 13 12 11 11 11 11 10 10 10 10 11 11 11 11 11 11 11 11 11 10 10 9 8 6 6 6 6 8 7 6 11 13 13 13 13 12 12
10 10 9 9 10 12 12 11 11 10 10 10 10 10 9 10 10 10 9 10 10 10 10 11 10 10 9 8 7 6 6 7 5 5 8 5 10 12 12 12 12 12 12
9 9 9 8 8 8 8 11 11 10 10 9 9 9 9 9 9 9 8 9 9 9 10 10 10 10 9 7 6 4 5 5 6 6 5 6 11 11 11 11 10 10 11
7 8 8 8 7 7 7 9 9 9 9 9 8 9 8 5 6 6 8 8 8 9 9 10 10 9 8 5 4 3 3 3 5 5 4 9 11 11 10 10 9 9 10
6 6 6 8 7 7 7 7 5 6 6 5 5 6 4 4 4 6 8 8 8 8 8 9 9 8 5 2 2 2 1 4 4 4 5 10 10 10 9 9 9 9 9
6 5 5 6 7 6 5 5 4 3 4 4 5 5 3 3 4 4 3 4 5 6 4 5 5 3 3 2 2 2 2 4 4 4 5 9 9 9 9 8 8 8 8
5 5 5 4 5 6 5 4 4 3 3 3 4 5 4 3 3 4 3 3 3 2 3 3 2 3 3 3 3 4 4 3 4 3 4 8 8 8 8 8 7 7 7
3 4 4 4 4 5 5 4 4 4 4 3 4 4 4 3 4 4 3 3 2 2 3 3 2 3 3 3 3 4 5 4 5 4 4 7 7 7 7 6 6 6 6
2 3 3 4 3 4 3 3 3 4 3 3 3 4 4 3 3 3 3 3 2 2 2 2 3 3 3 3 3 4 4 4 5 5 4 4 6 6 6 6 6 6 6
2 2 3 4 4 4 4 3 3 3 3 3 3 4 4 4 4 3 3 3 2 2 3 2 3 3 3 3 3 3 3 4 4 4 4 3 3 5 5 6 6 6 5
1 1 2 3 3 3 3 3 3 3 4 3 3 3 4 4 4 3 3 3 3 2 2 2 3 3 3 3 2 2 2 3 3 4 3 3 2 2 3 5 5 5 5
1 1 1 2 3 2 2 3 3 3 3 3 3 3 3 4 4 3 3 3 3 2 2 2 2 3 3 3 3 2 2 2 2 3 3 3 3 3 2 3 4 4 4
1 1 1 1 2 2 2 2 2 2 2 3 3 3 4 4 4 4 3 3 4 3 2 2 3 3 3 3 3 3 2 1 2 2 2 2 2 3 2 2 2 1 2
2 2 1 1 1 2 2 2 2 3 2 2 2 3 4 4 4 4 3 4 4 3 3 3 3 4 3 3 3 2 1 1 1 1 2 2 2 2 2 1 1 1 1
4 3 2 1 1 2 2 2 2 3 3 3 2 3 4 4 4 4 4 4 4 4 4 4 4 3 2 3 3 3 1 0 1 1 1 2 1 1 1 1 1 1 2
3 3 3 2 1 1 1 1 1 1 2 2 2 2 3 4 4 4 4 4 4 4 4 4 4 4 3 2 2 3 3 3 1 0 1 2 2 1 1 1 1 1 1
3 3 3 3 2 1 1 2 3 3 2 3 3 3 3 3 4 4 4 4 4 3 4 4 4 3 4 3 2 1 1 3 3 1 1 1 2 2 1 1 1 1 1
4 3 2 3 3 2 0 1 2 2 2 2 3 4 4 3 4 4 4 4 4 3 4 4 4 4 3 4 3 2 1 1 2 3 2 2 1 1 2 1 1 1 1
5 4 3 3 3 3 1 1 1 2 2 3 3 4 4 3 3 4 4 4 4 3 4 4 4 5 3 3 3 2 3 2 2 2 2 2 2 1 1 1 1 1 1
Wind_Direction
128 138 144 140 136 133 131 128 124 123 121 121 119 116 112 109 106 103 102 101 104 103 100 97 95 91 89 86 84 82 81 81 80 77 72 70 72 74 75 74 72 70 73
131 137 143 140 138 135 133 130 126 125 124 122 120 118 116 114 112 109 106 106 106 103 101 98 95 94 91 90 88 87 87 89 89 86 78 69 70 74 73 72 74 75 74
128 136 142 139 137 134 133 131 129 128 126 125 123 121 118 117 116 113 110 109 107 105 103 99 96 94 93 92 91 89 89 90 91 90 86 80 76 76 76 75 76 76 75
130 135 140 140 138 135 134 133 132 132 129 127 126 124 122 118 116 115 113 111 110 107 104 100 97 95 96 94 92 90 86 81 73 72 81 78 77 80 78 77 78 77 75
129 133 135 138 137 136 136 136 135 134 131 128 127 126 125 121 118 114 112 111 110 107 106 104 101 100 100 97 94 88 77 61 56 70 76 73 73 83 81 78 77 76 74
130 132 135 137 136 135 134 135 136 135 132 129 127 128 126 124 120 116 112 111 112 112 111 109 106 104 102 97 92 83 65 50 49 71 73 76 77 85 83 80 77 76 75
131 131 138 138 138 138 137 136 134 136 135 133 131 129 127 126 123 119 115 113 115 116 115 113 110 107 103 99 91 77 53 47 68 78 76 76 83 86 83 82 78 77 76
130 131 139 139 139 139 138 136 135 132 134 135 134 131 128 125 123 123 121 119 117 119 119 116 114 110 106 100 91 69 42 38 78 87 81 78 86 85 84 83 79 78 77
128 132 139 144 141 138 136 136 134 131 129 131 133 130 127 123 123 123 123 123 123 123 122 119 115 113 108 101 89 65 43 36 66 81 88 80 87 88 86 84 80 80 80
129 136 144 148 146 144 139 137 133 130 129 127 126 127 128 126 126 125 123 122 123 125 124 120 118 114 107 102 91 67 46 42 71 73 79 88 88 88 86 84 82 83 82
136 141 147 150 149 146 145 141 135 133 133 132 132 136 135 134 132 129 123 120 120 123 125 127 126 120 111 105 98 78 53 68 77 75 76 90 90 88 85 83 84 86 85
147 149 152 153 150 149 151 144 146 146 147 147 147 147 144 136 129 125 119 122 124 126 130 134 135 133 127 126 114 92 70 84 82 81 84 90 90 89 87 85 87 88 87
152 149 150 153 152 150 146 148 151 150 153 155 149 144 133 127 126 119 123 127 132 139 137 141 140 153 145 132 133 119 86 83 85 85 87 90 89 89 86 85 88 89 88
151 153 147 153 151 152 149 153 151 149 153 153 153 151 143 135 131 134 135 148 150 148 141 148 158 153 137 135 131 118 101 95 95 90 87 88 86 88 86 84 87 91 93
149 154 150 146 149 150 150 156 151 150 152 153 150 155 147 141 142 142 141 145 149 146 149 158 151 141 129 126 118 114 108 107 105 101 93 87 83 83 89 89 90 93 93
169 165 156 151 152 149 147 150 148 151 152 146 146 155 148 139 140 142 136 137 141 141 148 148 141 127 116 110 102 105 109 108 105 109 112 97 90 88 86 87 91 93 91
169 167 168 160 152 151 149 154 146 150 148 142 146 149 138 132 138 137 134 135 139 132 135 128 119 112 110 103 96 92 96 101 112 115 117 116 105 90 88 88 88 87 86
132 157 181 174 160 159 156 153 148 149 144 143 140 141 140 136 136 133 135 140 139 126 120 121 123 113 109 108 103 94 94 99 108 113 114 115 111 105 96 93 90 84 78
121 157 167 161 157 157 148 143 142 140 141 142 138 138 144 142 141 135 135 139 133 128 133 141 129 125 123 119 110 97 86 92 104 108 106 110 109 114 116 107 100 94 82
70 71 123 139 147 136 127 126 129 131 134 133 138 149 150 148 149 140 142 145 136 134 141 140 137 128 129 129 109 87 75 92 95 109 120 114 117 116 112 117 120 116 104
45 38 66 107 132 131 134 146 155 160 153 143 150 159 156 152 153 146 151 148 145 148 154 150 139 132 133 129 109 91 36 59 99 119 122 113 117 119 116 114 133 134 143
26 19 13 56 151 156 171 177 180 163 162 158 160 159 159 157 157 159 153 154 150 147 151 154 143 136 148 153 137 134 135 48 313 147 130 134 138 130 138 136 134 135 136
24 16 360 358 9 153 154 139 118 103 118 141 160 164 169 168 164 160 158 152 157 156 164 165 156 150 157 173 163 151 153 183 168 206 191 167 156 141 156 157 161 150 151
6 11 4 359 1 40 106 150 158 165 171 186 176 172 176 178 166 156 156 154 160 161 163 168 162 157 155 169 188 188 144 138 138 151 253 209 174 166 179 181 177 179 149
3 11 6 355 3 3 351 165 175 182 175 162 167 170 176 179 171 161 161 161 164 164 163 163 157 163 166 170 170 166 145 98 122 143 185 211 210 213 190 185 183 182 156
5 9 9 5 357 353 333 208 171 183 181 167 175 180 179 175 173 169 166 167 164 163 164 165 164 170 174 167 162 161 157 156 173 161 170 180 195 230 198 183 177 178 177